Time,TemperatureF,DewpointF,PressureIn,WindDirection,WindDirectionDegrees,WindSpeedMPH,WindSpeedGustMPH,Humidity,HourlyPrecipIn,Conditions,Clouds,dailyrainin,SoftwareType,DateUTC
2013-01-20 00:02:00,48.0,27.0,30.14,SW,214,0.0,0.0,43,0.00,,,0.00,,2013-01-20 07:02:00,
2013-01-20 00:22:00,48.0,27.0,30.14,SW,214,1.0,1.0,44,0.00,,,0.00,,2013-01-20 07:22:00,
2013-01-20 00:32:00,47.0,28.0,30.14,SSW,213,0.0,1.0,48,0.00,,,0.00,,2013-01-20 07:32:00,
2013-01-20 00:52:00,47.0,29.0,30.14,NNW,337,0.0,0.0,49,0.00,,,0.00,,2013-01-20 07:52:00,
2013-01-20 01:01:00,47.0,29.0,30.14,NNW,343,0.0,0.0,49,0.00,,,0.00,,2013-01-20 08:01:00,
2013-01-20 01:22:00,46.0,28.0,30.14,NNW,343,0.0,0.0,49,0.00,,,0.00,,2013-01-20 08:22:00,
2013-01-20 01:32:00,46.0,28.0,30.14,East,100,1.0,2.0,50,0.00,,,0.00,,2013-01-20 08:32:00,
2013-01-20 01:42:00,46.0,28.0,30.14,East,100,1.0,2.0,50,0.00,,,0.00,,2013-01-20 08:42:00,
2013-01-20 01:52:00,46.0,28.0,30.14,East,99,1.0,2.0,49,0.00,,,0.00,,2013-01-20 08:52:00,
2013-01-20 02:02:00,46.0,27.0,30.14,ENE,73,0.0,0.0,48,0.00,,,0.00,,2013-01-20 09:02:00,
2013-01-20 02:22:00,46.0,27.0,30.14,ENE,74,0.0,1.0,47,0.00,,,0.00,,2013-01-20 09:22:00,
2013-01-20 02:33:00,45.0,24.0,30.14,ESE,106,1.0,2.0,44,0.00,,,0.00,,2013-01-20 09:33:00,
2013-01-20 02:52:00,46.0,25.0,30.14,NE,42,1.0,2.0,43,0.00,,,0.00,,2013-01-20 09:52:00,
2013-01-20 03:02:00,46.0,25.0,30.14,NNE,28,1.0,2.0,43,0.00,,,0.00,,2013-01-20 10:02:00,
2013-01-20 03:22:00,46.0,24.0,30.14,ENE,62,0.0,0.0,42,0.00,,,0.00,,2013-01-20 10:22:00,
2013-01-20 03:32:00,45.0,24.0,30.13,ENE,62,1.0,2.0,43,0.00,,,0.00,,2013-01-20 10:32:00,
2013-01-20 03:52:00,45.0,23.0,30.12,NE,35,3.0,4.0,42,0.00,,,0.00,,2013-01-20 10:52:00,
2013-01-20 04:02:00,45.0,22.0,30.12,NNE,29,2.0,2.0,39,0.00,,,0.00,,2013-01-20 11:02:00,
2013-01-20 04:22:00,45.0,21.0,30.12,NNE,25,3.0,5.0,38,0.00,,,0.00,,2013-01-20 11:22:00,
2013-01-20 04:32:00,48.0,20.0,30.12,NNE,19,4.0,5.0,33,0.00,,,0.00,,2013-01-20 11:32:00,
2013-01-20 04:42:00,48.0,20.0,30.12,NNE,19,4.0,5.0,33,0.00,,,0.00,,2013-01-20 11:42:00,
2013-01-20 04:53:00,50.0,20.0,30.12,NNE,12,3.0,4.0,30,0.00,,,0.00,,2013-01-20 11:53:00,
2013-01-20 05:02:00,51.0,20.0,30.12,NNE,29,3.0,5.0,29,0.00,,,0.00,,2013-01-20 12:02:00,
2013-01-20 05:22:00,51.0,21.0,30.12,NNE,18,1.0,2.0,30,0.00,,,0.00,,2013-01-20 12:22:00,
2013-01-20 05:32:00,49.0,19.0,30.12,NNE,30,2.0,3.0,30,0.00,,,0.00,,2013-01-20 12:32:00,
2013-01-20 05:42:00,49.0,19.0,30.12,NNE,30,2.0,3.0,30,0.00,,,0.00,,2013-01-20 12:42:00,
2013-01-20 05:53:00,48.0,21.0,30.12,NNE,33,1.0,2.0,34,0.00,,,0.00,,2013-01-20 12:53:00,
2013-01-20 06:02:00,47.0,20.0,30.12,NE,39,2.0,3.0,34,0.00,,,0.00,,2013-01-20 13:02:00,
2013-01-20 06:11:00,47.0,20.0,30.12,NE,39,2.0,3.0,34,0.00,,,0.00,,2013-01-20 13:11:00,
2013-01-20 06:22:00,47.0,19.0,30.12,NNE,30,3.0,3.0,33,0.00,,,0.00,,2013-01-20 13:22:00,
2013-01-20 06:32:00,49.0,19.0,30.13,NNE,22,4.0,5.0,30,0.00,,,0.00,,2013-01-20 13:32:00,
2013-01-20 06:42:00,49.0,19.0,30.13,NNE,22,4.0,5.0,30,0.00,,,0.00,,2013-01-20 13:42:00,
2013-01-20 06:52:00,50.0,19.0,30.13,NNE,31,3.0,5.0,29,0.00,,,0.00,,2013-01-20 13:52:00,
2013-01-20 07:02:00,50.0,19.0,30.13,NNE,23,3.0,3.0,29,0.00,,,0.00,,2013-01-20 14:02:00,
2013-01-20 07:11:00,50.0,19.0,30.13,NNE,23,3.0,3.0,29,0.00,,,0.00,,2013-01-20 14:11:00,
2013-01-20 07:22:00,50.0,20.0,30.13,NE,42,3.0,4.0,30,0.00,,,0.00,,2013-01-20 14:22:00,
2013-01-20 07:32:00,49.0,19.0,30.13,NNE,23,2.0,3.0,30,0.00,,,0.00,,2013-01-20 14:32:00,
2013-01-20 07:42:00,49.0,19.0,30.13,NNE,23,2.0,3.0,30,0.00,,,0.00,,2013-01-20 14:42:00,
2013-01-20 07:53:00,49.0,20.0,30.14,NNE,15,1.0,3.0,31,0.00,,,0.00,,2013-01-20 14:53:00,
2013-01-20 08:02:00,51.0,21.0,30.14,NNE,13,2.0,2.0,30,0.00,,,0.00,,2013-01-20 15:02:00,
2013-01-20 08:12:00,51.0,21.0,30.14,NNE,13,2.0,2.0,30,0.00,,,0.00,,2013-01-20 15:12:00,
2013-01-20 08:22:00,50.0,20.0,30.14,NNE,16,3.0,4.0,30,0.00,,,0.00,,2013-01-20 15:22:00,
2013-01-20 08:32:00,51.0,20.0,30.14,NNE,13,5.0,6.0,29,0.00,,,0.00,,2013-01-20 15:32:00,
2013-01-20 08:42:00,51.0,20.0,30.14,NNE,13,5.0,6.0,29,0.00,,,0.00,,2013-01-20 15:42:00,
2013-01-20 08:53:00,52.0,19.0,30.14,North,4,4.0,5.0,27,0.00,,,0.00,,2013-01-20 15:53:00,
2013-01-20 09:02:00,54.0,20.0,30.15,North,10,5.0,6.0,26,0.00,,,0.00,,2013-01-20 16:02:00,
2013-01-20 09:12:00,54.0,20.0,30.15,North,10,5.0,6.0,26,0.00,,,0.00,,2013-01-20 16:12:00,
2013-01-20 09:22:00,56.0,20.0,30.14,North,8,5.0,8.0,24,0.00,,,0.00,,2013-01-20 16:22:00,
2013-01-20 09:32:00,58.0,20.0,30.15,North,350,4.0,7.0,23,0.00,,,0.00,,2013-01-20 16:32:00,
2013-01-20 09:42:00,58.0,20.0,30.15,North,350,4.0,7.0,23,0.00,,,0.00,,2013-01-20 16:42:00,
2013-01-20 09:52:00,60.0,20.0,30.15,NNW,341,4.0,4.0,21,0.00,,,0.00,,2013-01-20 16:52:00,
2013-01-20 10:02:00,62.0,20.0,30.16,North,350,4.0,7.0,20,0.00,,,0.00,,2013-01-20 17:02:00,
2013-01-20 10:12:00,62.0,20.0,30.16,North,350,4.0,7.0,20,0.00,,,0.00,,2013-01-20 17:12:00,
2013-01-20 10:22:00,63.0,20.0,30.16,NNW,337,5.0,8.0,19,0.00,,,0.00,,2013-01-20 17:22:00,
2013-01-20 10:32:00,65.0,20.0,30.16,NNW,343,7.0,9.0,18,0.00,,,0.00,,2013-01-20 17:32:00,
2013-01-20 10:42:00,65.0,20.0,30.16,NNW,343,7.0,9.0,18,0.00,,,0.00,,2013-01-20 17:42:00,
2013-01-20 10:53:00,66.0,20.0,30.16,NW,312,8.0,11.0,17,0.00,,,0.00,,2013-01-20 17:53:00,
2013-01-20 11:02:00,67.0,21.0,30.16,North,10,9.0,13.0,17,0.00,,,0.00,,2013-01-20 18:02:00,
2013-01-20 11:12:00,68.0,20.0,30.16,NNE,14,8.0,10.0,16,0.00,,,0.00,,2013-01-20 18:12:00,
2013-01-20 11:22:00,68.0,20.0,30.16,NNE,14,8.0,10.0,16,0.00,,,0.00,,2013-01-20 18:22:00,
2013-01-20 11:32:00,69.0,19.0,30.16,NNE,30,6.0,12.0,15,0.00,,,0.00,,2013-01-20 18:32:00,
2013-01-20 11:42:00,69.0,19.0,30.16,NNE,30,6.0,12.0,15,0.00,,,0.00,,2013-01-20 18:42:00,
2013-01-20 11:53:00,69.0,19.0,30.15,North,4,7.0,9.0,15,0.00,,,0.00,,2013-01-20 18:53:00,
2013-01-20 12:02:00,70.0,20.0,30.15,NNW,348,6.0,8.0,15,0.00,,,0.00,,2013-01-20 19:02:00,
2013-01-20 12:12:00,70.0,20.0,30.15,NNW,348,6.0,8.0,15,0.00,,,0.00,,2013-01-20 19:12:00,
2013-01-20 12:22:00,71.0,19.0,30.14,NNE,21,10.0,13.0,14,0.00,,,0.00,,2013-01-20 19:22:00,
2013-01-20 12:32:00,70.0,19.0,30.12,NNE,17,9.0,13.0,14,0.00,,,0.00,,2013-01-20 19:32:00,
2013-01-20 12:42:00,70.0,19.0,30.12,NNE,17,9.0,13.0,14,0.00,,,0.00,,2013-01-20 19:42:00,
2013-01-20 12:52:00,70.0,19.0,30.11,NNE,23,9.0,11.0,14,0.00,,,0.00,,2013-01-20 19:52:00,
2013-01-20 13:02:00,70.0,19.0,30.10,NNE,13,6.0,13.0,14,0.00,,,0.00,,2013-01-20 20:02:00,
2013-01-20 13:12:00,70.0,19.0,30.10,NNE,13,6.0,13.0,14,0.00,,,0.00,,2013-01-20 20:12:00,
2013-01-20 13:22:00,70.0,19.0,30.09,North,6,10.0,13.0,14,0.00,,,0.00,,2013-01-20 20:22:00,
2013-01-20 13:32:00,70.0,19.0,30.09,North,9,6.0,7.0,14,0.00,,,0.00,,2013-01-20 20:32:00,
2013-01-20 13:42:00,70.0,19.0,30.09,North,9,6.0,7.0,14,0.00,,,0.00,,2013-01-20 20:42:00,
2013-01-20 13:53:00,70.0,20.0,30.08,North,10,8.0,12.0,15,0.00,,,0.00,,2013-01-20 20:53:00,
2013-01-20 14:02:00,71.0,19.0,30.07,NNW,347,10.0,12.0,14,0.00,,,0.00,,2013-01-20 21:02:00,
2013-01-20 14:12:00,71.0,19.0,30.07,NNW,347,10.0,12.0,14,0.00,,,0.00,,2013-01-20 21:12:00,
2013-01-20 14:22:00,71.0,19.0,30.06,North,9,8.0,9.0,14,0.00,,,0.00,,2013-01-20 21:22:00,
2013-01-20 14:32:00,71.0,19.0,30.06,North,354,10.0,14.0,14,0.00,,,0.00,,2013-01-20 21:32:00,
2013-01-20 14:42:00,71.0,19.0,30.06,North,354,10.0,14.0,14,0.00,,,0.00,,2013-01-20 21:42:00,
2013-01-20 14:53:00,71.0,21.0,30.06,North,9,6.0,12.0,15,0.00,,,0.00,,2013-01-20 21:53:00,
2013-01-20 15:02:00,72.0,20.0,30.06,NNE,12,8.0,15.0,14,0.00,,,0.00,,2013-01-20 22:02:00,
2013-01-20 15:12:00,72.0,20.0,30.06,NNE,12,8.0,15.0,14,0.00,,,0.00,,2013-01-20 22:12:00,
2013-01-20 15:22:00,73.0,19.0,30.05,NNW,345,11.0,15.0,13,0.00,,,0.00,,2013-01-20 22:22:00,
2013-01-20 15:32:00,73.0,21.0,30.04,North,355,10.0,14.0,14,0.00,,,0.00,,2013-01-20 22:32:00,
2013-01-20 15:42:00,73.0,21.0,30.04,North,355,10.0,14.0,14,0.00,,,0.00,,2013-01-20 22:42:00,
2013-01-20 15:53:00,73.0,21.0,30.03,NNW,344,7.0,9.0,14,0.00,,,0.00,,2013-01-20 22:53:00,
2013-01-20 16:02:00,72.0,20.0,30.03,North,6,10.0,14.0,14,0.00,,,0.00,,2013-01-20 23:02:00,
2013-01-20 16:12:00,72.0,20.0,30.03,North,6,10.0,14.0,14,0.00,,,0.00,,2013-01-20 23:12:00,
2013-01-20 16:22:00,72.0,20.0,30.03,North,354,8.0,12.0,14,0.00,,,0.00,,2013-01-20 23:22:00,
2013-01-20 16:32:00,72.0,20.0,30.03,NNW,340,9.0,12.0,14,0.00,,,0.00,,2013-01-20 23:32:00,
2013-01-20 16:42:00,72.0,20.0,30.03,NNW,340,9.0,12.0,14,0.00,,,0.00,,2013-01-20 23:42:00,
2013-01-20 16:53:00,72.0,20.0,30.03,NNW,347,7.0,14.0,14,0.00,,,0.00,,2013-01-20 23:53:00,
2013-01-20 17:02:00,71.0,21.0,30.03,NNE,31,7.0,11.0,15,0.00,,,0.00,,2013-01-21 00:02:00,
2013-01-20 17:12:00,71.0,21.0,30.03,NNE,31,7.0,11.0,15,0.00,,,0.00,,2013-01-21 00:12:00,
2013-01-20 17:22:00,71.0,21.0,30.03,North,359,8.0,8.0,15,0.00,,,0.00,,2013-01-21 00:22:00,
2013-01-20 17:32:00,70.0,22.0,30.03,North,349,4.0,6.0,16,0.00,,,0.00,,2013-01-21 00:32:00,
2013-01-20 17:42:00,70.0,22.0,30.03,North,349,4.0,6.0,16,0.00,,,0.00,,2013-01-21 00:42:00,
2013-01-20 17:53:00,70.0,20.0,30.03,NNW,341,6.0,7.0,15,0.00,,,0.00,,2013-01-21 00:53:00,
2013-01-20 18:02:00,69.0,21.0,30.03,NW,326,2.0,3.0,16,0.00,,,0.00,,2013-01-21 01:02:00,
2013-01-20 18:12:00,69.0,21.0,30.03,NW,326,2.0,3.0,16,0.00,,,0.00,,2013-01-21 01:12:00,
2013-01-20 18:22:00,68.0,22.0,30.03,NW,317,4.0,6.0,17,0.00,,,0.00,,2013-01-21 01:22:00,
2013-01-20 18:32:00,67.0,21.0,30.04,NW,320,4.0,5.0,17,0.00,,,0.00,,2013-01-21 01:32:00,
2013-01-20 18:42:00,67.0,21.0,30.04,NW,320,4.0,5.0,17,0.00,,,0.00,,2013-01-21 01:42:00,
2013-01-20 18:53:00,66.0,21.0,30.03,NNW,330,5.0,8.0,18,0.00,,,0.00,,2013-01-21 01:53:00,
2013-01-20 19:02:00,66.0,20.0,30.04,NW,326,4.0,7.0,17,0.00,,,0.00,,2013-01-21 02:02:00,
2013-01-20 19:11:00,66.0,20.0,30.04,NW,326,4.0,7.0,17,0.00,,,0.00,,2013-01-21 02:11:00,
2013-01-20 19:22:00,66.0,21.0,30.04,NW,326,3.0,3.0,18,0.00,,,0.00,,2013-01-21 02:22:00,
2013-01-20 19:32:00,65.0,22.0,30.04,NNW,327,4.0,5.0,19,0.00,,,0.00,,2013-01-21 02:32:00,
2013-01-20 19:42:00,65.0,22.0,30.04,NNW,327,4.0,5.0,19,0.00,,,0.00,,2013-01-21 02:42:00,
2013-01-20 19:53:00,65.0,22.0,30.05,NNW,342,3.0,5.0,19,0.00,,,0.00,,2013-01-21 02:53:00,
2013-01-20 20:02:00,64.0,21.0,30.05,North,350,2.0,4.0,19,0.00,,,0.00,,2013-01-21 03:02:00,
2013-01-20 20:11:00,64.0,21.0,30.05,North,350,2.0,4.0,19,0.00,,,0.00,,2013-01-21 03:11:00,
2013-01-20 20:22:00,62.0,22.0,30.05,NNE,18,1.0,1.0,21,0.00,,,0.00,,2013-01-21 03:22:00,
2013-01-20 20:32:00,61.0,23.0,30.05,NNW,335,0.0,0.0,23,0.00,,,0.00,,2013-01-21 03:32:00,
2013-01-20 20:42:00,61.0,23.0,30.05,NNW,335,0.0,0.0,23,0.00,,,0.00,,2013-01-21 03:42:00,
2013-01-20 20:53:00,59.0,22.0,30.06,NNW,336,0.0,0.0,24,0.00,,,0.00,,2013-01-21 03:53:00,
2013-01-20 21:02:00,58.0,23.0,30.06,NNW,336,0.0,0.0,26,0.00,,,0.00,,2013-01-21 04:02:00,
2013-01-20 21:11:00,58.0,23.0,30.06,NNW,336,0.0,0.0,26,0.00,,,0.00,,2013-01-21 04:11:00,
2013-01-20 21:22:00,56.0,23.0,30.06,NNW,336,0.0,0.0,27,0.00,,,0.00,,2013-01-21 04:22:00,
2013-01-20 21:32:00,55.0,23.0,30.06,NNW,336,0.0,0.0,29,0.00,,,0.00,,2013-01-21 04:32:00,
2013-01-20 21:42:00,55.0,23.0,30.06,NNW,336,0.0,0.0,29,0.00,,,0.00,,2013-01-21 04:42:00,
2013-01-20 21:53:00,55.0,24.0,30.06,NNW,336,0.0,0.0,30,0.00,,,0.00,,2013-01-21 04:53:00,
2013-01-20 22:03:00,54.0,24.0,30.06,NNW,340,0.0,1.0,31,0.00,,,0.00,,2013-01-21 05:03:00,
2013-01-20 22:12:00,54.0,24.0,30.06,NNW,340,0.0,1.0,31,0.00,,,0.00,,2013-01-21 05:12:00,
2013-01-20 22:22:00,53.0,24.0,30.07,NNW,340,0.0,0.0,32,0.00,,,0.00,,2013-01-21 05:22:00,
2013-01-20 22:32:00,52.0,28.0,30.07,NNW,340,0.0,0.0,39,0.00,,,0.00,,2013-01-21 05:32:00,
2013-01-20 22:53:00,53.0,25.0,30.07,NNW,340,1.0,2.0,33,0.00,,,0.00,,2013-01-21 05:53:00,
2013-01-20 23:02:00,52.0,25.0,30.08,NNW,340,0.0,0.0,34,0.00,,,0.00,,2013-01-21 06:02:00,
2013-01-20 23:12:00,52.0,25.0,30.08,NNW,340,0.0,0.0,34,0.00,,,0.00,,2013-01-21 06:12:00,
2013-01-20 23:22:00,51.0,26.0,30.08,North,349,1.0,2.0,37,0.00,,,0.00,,2013-01-21 06:22:00,
2013-01-20 23:32:00,50.0,25.0,30.07,SSE,158,1.0,1.0,37,0.00,,,0.00,,2013-01-21 06:32:00,
2013-01-20 23:42:00,50.0,25.0,30.07,SSE,158,1.0,1.0,37,0.00,,,0.00,,2013-01-21 06:42:00,
2013-01-20 23:53:00,49.0,25.0,30.07,SW,222,0.0,0.0,38,0.00,,,0.00,,2013-01-21 06:53:00,